West Palm Beach, FL

11:14 PM EDT on August 24, 2019 (GMT -0400)
Palm Beach International

Weather History for KPBI - May, 2019

Change the Weather History Date:

Thursday, May 23, 2019

  Actual Average Record
Temperature  
Mean Temperature 83 °F 80 °F  
Max Temperature 87 °F 87 °F 93 °F (1961)
Min Temperature 78 °F 72 °F 56 °F (1919)
Degree Days  
Heating Degree Days 0 0  
Month to date heating degree days 0 0  
Since 1 July heating degree days 144 233  
Cooling Degree Days 18 14  
Month to date cooling degree days 336 292  
Year to date cooling degree days 1261 987  
Growing Degree Days 32 (Base 50)    
Moisture  
Dew Point 68 °F    
Average Humidity 64    
Maximum Humidity 74    
Minimum Humidity 54    
Precipitation  
Precipitation 0.00 in 0.18 in 5.33 in (2009)
Month to date precipitation 5.29 2.80  
Year to date precipitation 21.01 17.00  
Snow  
Snow 0.00 in - - ()
Month to date snowfall 0.0  
Since 1 July snowfall 0.0  
Snow Depth 0.00 in    
Sea Level Pressure  
Sea Level Pressure 30.12 in    
Wind  
Wind Speed 16 mph (ENE)    
Max Wind Speed 21 mph    
Max Gust Speed 27 mph    
Visibility 10 miles    
Events      
T = Trace of Precipitation, MM = Missing Value Source: NWS Daily Summary

Daily Weather History Graph

Daily Weather History Graph

Search for Another Location

Airport or City:

Astronomy

May. 23, 2019 Rise Set
Actual Time 6:29 AM EDT 8:04 PM EDT
Civil Twilight 6:04 AM EDT 8:30 PM EDT
Nautical Twilight 5:33 AM EDT 9:01 PM EDT
Astronomical Twilight 5:01 AM EDT 9:33 PM EDT
Moon No Moon Rise 10:33 AM EDT (5/23)
Length of Visible Light 14h 26m
Length of Day
13h 35m
Waning Gibbous, 77% of the Moon is Illuminated
May 23
Waning Gibbous
May 26
Last Quarter
Jun 3
New
Jun 10
First Quarter
Jun 17
Full

Hourly Weather History & Observations

Time (EDT) Temp. Heat Index Dew Point Humidity Pressure Visibility Wind Dir Wind Speed Gust Speed Precip Events Conditions
12:53 AM 80.1 °F 82.7 °F 68.0 °F 67% 30.13 in 10.0 mi ENE 13.8 mph - N/A   Scattered Clouds
1:53 AM 80.1 °F 82.7 °F 68.0 °F 67% 30.12 in 10.0 mi East 13.8 mph - N/A   Scattered Clouds
2:53 AM 80.1 °F 82.7 °F 68.0 °F 67% 30.10 in 10.0 mi East 15.0 mph - N/A   Scattered Clouds
3:53 AM 79.0 °F - 68.0 °F 69% 30.09 in 10.0 mi ENE 13.8 mph - N/A   Scattered Clouds
4:53 AM 79.0 °F - 66.9 °F 66% 30.09 in 10.0 mi ENE 11.5 mph - N/A   Partly Cloudy
5:53 AM 78.1 °F - 69.1 °F 74% 30.09 in 10.0 mi East 17.3 mph - N/A   Scattered Clouds
6:53 AM 78.1 °F - 68.0 °F 71% 30.11 in 10.0 mi East 11.5 mph - N/A   Scattered Clouds
7:53 AM 80.1 °F 82.7 °F 68.0 °F 67% 30.12 in 10.0 mi East 11.5 mph - N/A   Scattered Clouds
8:53 AM 82.0 °F 84.9 °F 68.0 °F 62% 30.13 in 10.0 mi East 17.3 mph - N/A   Scattered Clouds
9:53 AM 82.9 °F 86.5 °F 69.1 °F 63% 30.14 in 10.0 mi East 17.3 mph - N/A   Scattered Clouds
10:53 AM 84.0 °F 88.4 °F 70.0 °F 63% 30.15 in 10.0 mi East 16.1 mph - N/A   Scattered Clouds
11:53 AM 84.9 °F 89.4 °F 70.0 °F 61% 30.15 in 10.0 mi East 16.1 mph 24.2 mph N/A   Scattered Clouds
12:53 PM 86.0 °F 91.5 °F 71.1 °F 61% 30.15 in 10.0 mi East 17.3 mph 23.0 mph N/A   Scattered Clouds
1:53 PM 84.9 °F 90.1 °F 71.1 °F 63% 30.14 in 10.0 mi East 18.4 mph 23.0 mph N/A   Scattered Clouds
2:53 PM 84.9 °F 90.1 °F 71.1 °F 63% 30.13 in 10.0 mi NE 20.7 mph 26.5 mph N/A   Mostly Cloudy
3:53 PM 84.0 °F 87.8 °F 69.1 °F 61% 30.12 in 10.0 mi NE 19.6 mph 25.3 mph N/A   Mostly Cloudy
4:53 PM 82.9 °F 85.0 °F 66.0 °F 56% 30.11 in 10.0 mi NE 19.6 mph - N/A   Mostly Cloudy
5:53 PM 84.0 °F 86.3 °F 66.0 °F 55% 30.10 in 10.0 mi ENE 16.1 mph 25.3 mph N/A   Scattered Clouds
6:53 PM 81.0 °F 82.7 °F 64.9 °F 58% 30.10 in 10.0 mi NE 18.4 mph 25.3 mph N/A   Mostly Cloudy
7:53 PM 80.1 °F 81.5 °F 63.0 °F 56% 30.12 in 10.0 mi ENE 16.1 mph - N/A   Scattered Clouds
11:53 PM 78.1 °F - 63.0 °F 60% 30.13 in 10.0 mi East 17.3 mph - N/A   Scattered Clouds